This is the latest recevied weather packets stored in our database for station/object W4KUS-10. If no packets are shown the sender has not sent any weather packets the latest 1 day(s).
| Time | Temp. | Humidity | Pressure | Rain* | Wind** | Luminosity | Snow |
|---|---|---|---|---|---|---|---|
| 1778006440 | 26.11° C | 52% | 1017.7 hPa | 0 mm | 1.79 m/s, 250° | - | - |
| 1778006140 | 26.11° C | 52% | 1017.8 hPa | 0 mm | 1.34 m/s, 278° | - | - |
| 1778005840 | 26.11° C | 50% | 1017.8 hPa | 0 mm | 2.24 m/s, 253° | - | - |
| 1778005540 | 26.11° C | 50% | 1017.8 hPa | 0 mm | 1.79 m/s, 266° | - | - |
| 1778005240 | 26.11° C | 49% | 1017.9 hPa | 0 mm | 1.79 m/s, 268° | - | - |
| 1778004940 | 26.11° C | 49% | 1017.8 hPa | 0 mm | 1.34 m/s, 262° | - | - |
| 1778004640 | 26.11° C | 48% | 1017.8 hPa | 0 mm | 1.79 m/s, 262° | - | - |
| 1778004340 | 26.11° C | 49% | 1017.8 hPa | 0 mm | 0.89 m/s, 281° | - | - |
| 1778004040 | 26.11° C | 47% | 1017.8 hPa | 0 mm | 1.79 m/s, 283° | - | - |
| 1778003740 | 26.11° C | 47% | 1017.8 hPa | 0 mm | 1.79 m/s, 293° | - | - |
| 1778003440 | 26.11° C | 48% | 1017.8 hPa | 0 mm | 1.79 m/s, 253° | - | - |
| 1778003140 | 26.11° C | 47% | 1017.9 hPa | 0 mm | 1.79 m/s, 264° | - | - |
| 1778002840 | 26.11° C | 48% | 1017.9 hPa | 0 mm | 2.24 m/s, 249° | - | - |
| 1778002540 | 26.11° C | 50% | 1017.9 hPa | 0 mm | 1.34 m/s, 267° | - | - |
| 1778002240 | 26.11° C | 49% | 1017.8 hPa | 0 mm | 1.79 m/s, 264° | - | - |
| 1778001940 | 26.11° C | 50% | 1017.8 hPa | 0 mm | 1.79 m/s, 253° | - | - |
| 1778001640 | 26.11° C | 49% | 1017.9 hPa | 0 mm | 2.68 m/s, 266° | - | - |
| 1778001340 | 26.11° C | 51% | 1018 hPa | 0 mm | 1.79 m/s, 267° | - | - |
| 1778001040 | 26.11° C | 50% | 1018 hPa | 0 mm | 1.79 m/s, 264° | - | - |
| 1778000740 | 25.56° C | 50% | 1017.9 hPa | 0 mm | 1.34 m/s, 257° | - | - |
| 1778000440 | 26.11° C | 50% | 1017.9 hPa | 0 mm | 1.79 m/s, 272° | - | - |
| 1778000140 | 26.11° C | 50% | 1017.9 hPa | 0 mm | 1.79 m/s, 279° | - | - |
| 1777999840 | 26.11° C | 50% | 1017.9 hPa | 0 mm | 1.79 m/s, 275° | - | - |
| 1777999540 | 26.11° C | 50% | 1017.9 hPa | 0 mm | 1.79 m/s, 272° | - | - |
| 1777999240 | 26.11° C | 51% | 1018 hPa | 0 mm | 1.34 m/s, 260° | - | - |
* Rain latest hour (hover to see other rain measurements)
** Current wind speed in m/s (hover to see current wind gust speed)